• In Latvia
  • List of Countries
  • For 7 days
  • Water Temperature
  • Satellite Maps
  • Weather Map
  • Weather Widgets
  • user-avatar
    Login

    Hourly Weather Samos

    Today, 25 June, Monday

    Time Temperature Precipitation Wind Pressure Humidity
    00:00 +21°C° 0 mm 4 mps 718 mmHg 71%
    01:00 +20°C° 0 mm 4 mps 718 mmHg 73%
    02:00 +20°C° 0 mm 4 mps 718 mmHg 75%
    03:00 +19°C° 0 mm 4 mps 718 mmHg 77%
    04:00 +19°C° 0 mm 5 mps 718 mmHg 78%
    05:00 +19°C° 0 mm 5 mps 718 mmHg 79%
    06:00 +20°C° 0 mm 5 mps 718 mmHg 72%
    07:00 +22°C° 0 mm 5 mps 718 mmHg 65%
    08:00 +25°C° 0 mm 5 mps 718 mmHg 58%
    09:00 +26°C° 0 mm 4 mps 718 mmHg 52%
    10:00 +28°C° 0 mm 4 mps 718 mmHg 46%
    11:00 +30°C° 0 mm 3 mps 718 mmHg 40%
    12:00 +32°C° 0 mm 4 mps 718 mmHg 38%
    13:00 +32°C° 0 mm 4 mps 718 mmHg 36%
    14:00 +33°C° 0 mm 4 mps 718 mmHg 34%
    15:00 +32°C° 0 mm 5 mps 718 mmHg 36%
    16:00 +32°C° 0 mm 5 mps 717 mmHg 38%
    17:00 +30°C° 0 mm 5 mps 717 mmHg 40%
    18:00 +28°C° 0 mm 4 mps 717 mmHg 47%
    19:00 +26°C° 0 mm 3 mps 717 mmHg 55%
    20:00 +24°C° 0 mm 3 mps 717 mmHg 62%
    21:00 +24°C° 0 mm 3 mps 717 mmHg 66%
    22:00 +23°C° 0 mm 2 mps 717 mmHg 70%
    23:00 +21°C° 0 mm 2 mps 717 mmHg 73%

    Tomorrow, 26 June, Tuesday

    Time Temperature Precipitation Wind Pressure Humidity
    00:00 +21°C° 0 mm 2 mps 717 mmHg 75%
    01:00 +21°C° 0 mm 1 mps 717 mmHg 77%
    02:00 +21°C° 0 mm 1 mps 716 mmHg 79%
    03:00 +21°C° 0 mm 1 mps 716 mmHg 80%
    04:00 +19°C° 0 mm 2 mps 716 mmHg 81%
    05:00 +19°C° 0 mm 2 mps 715 mmHg 83%
    06:00 +21°C° 0 mm 2 mps 715 mmHg 76%
    07:00 +23°C° 0 mm 2 mps 716 mmHg 69%
    08:00 +25°C° 0 mm 2 mps 716 mmHg 62%
    09:00 +26°C° 0 mm 3 mps 716 mmHg 56%
    10:00 +27°C° 0 mm 4 mps 716 mmHg 49%
    11:00 +29°C° 0 mm 4 mps 716 mmHg 43%
    12:00 +29°C° 0 mm 4 mps 716 mmHg 42%
    13:00 +29°C° 0 mm 4 mps 716 mmHg 41%
    14:00 +29°C° 0 mm 4 mps 716 mmHg 40%
    15:00 +29°C° 0 mm 4 mps 716 mmHg 42%
    16:00 +28°C° 0 mm 4 mps 716 mmHg 43%
    17:00 +28°C° 0 mm 4 mps 715 mmHg 45%
    18:00 +26°C° 0.2 mm 3 mps 715 mmHg 51%
    19:00 +24°C° 0.2 mm 2 mps 715 mmHg 58%
    20:00 +23°C° 0.2 mm 1 mps 715 mmHg 64%
    21:00 +22°C° 0.1 mm 1 mps 715 mmHg 66%
    22:00 +22°C° 0.1 mm 1 mps 715 mmHg 68%
    23:00 +21°C° 0.1 mm 1 mps 716 mmHg 70%

    Day after tomorrow, 27 June, Wednesday

    Time Temperature Precipitation Wind Pressure Humidity
    00:00 +22°C° 0.1 mm 1 mps 715 mmHg 68%
    01:00 +21°C° 0.1 mm 2 mps 715 mmHg 66%
    02:00 +21°C° 0.1 mm 2 mps 715 mmHg 64%
    03:00 +21°C° 0.1 mm 3 mps 715 mmHg 64%
    04:00 +21°C° 0.1 mm 3 mps 714 mmHg 63%
    05:00 +21°C° 0.1 mm 3 mps 714 mmHg 63%
    06:00 +22°C° 0.1 mm 3 mps 714 mmHg 60%
    07:00 +23°C° 0.1 mm 2 mps 714 mmHg 58%
    08:00 +24°C° 0.1 mm 2 mps 714 mmHg 55%
    09:00 +26°C° 0.1 mm 2 mps 714 mmHg 49%
    10:00 +28°C° 0.1 mm 3 mps 714 mmHg 43%
    11:00 +30°C° 0.1 mm 3 mps 714 mmHg 37%
    12:00 +30°C° 0.1 mm 4 mps 714 mmHg 39%
    13:00 +30°C° 0.1 mm 4 mps 714 mmHg 42%
    14:00 +30°C° 0.1 mm 4 mps 714 mmHg 44%
    15:00 +29°C° 0.1 mm 4 mps 713 mmHg 49%
    16:00 +28°C° 0.1 mm 4 mps 713 mmHg 53%
    17:00 +27°C° 0.1 mm 4 mps 713 mmHg 58%
    18:00 +25°C° 0.1 mm 3 mps 713 mmHg 66%
    19:00 +24°C° 0.1 mm 3 mps 714 mmHg 74%
    20:00 +21°C° 0.1 mm 2 mps 714 mmHg 82%
    21:00 +21°C° 0.1 mm 2 mps 714 mmHg 84%
    22:00 +20°C° 0.1 mm 2 mps 714 mmHg 87%
    23:00 +20°C° 0.1 mm 2 mps 715 mmHg 90%

    28 June, Thursday

    Time Temperature Precipitation Wind Pressure Humidity
    00:00 +20°C° 0.2 mm 3 mps 714 mmHg 90%
    01:00 +19°C° 0.2 mm 3 mps 714 mmHg 91%
    02:00 +19°C° 0.2 mm 3 mps 714 mmHg 92%
    03:00 +19°C° 0.2 mm 3 mps 714 mmHg 91%
    04:00 +19°C° 0.2 mm 4 mps 714 mmHg 91%
    05:00 +19°C° 0.2 mm 4 mps 714 mmHg 91%
    06:00 +20°C° 0.1 mm 4 mps 714 mmHg 83%
    07:00 +21°C° 0.1 mm 4 mps 715 mmHg 75%
    08:00 +23°C° 0.1 mm 5 mps 715 mmHg 67%
    09:00 +25°C° 0.1 mm 5 mps 715 mmHg 63%
    10:00 +26°C° 0.1 mm 5 mps 715 mmHg 59%
    11:00 +27°C° 0.1 mm 6 mps 715 mmHg 54%
    12:00 +27°C° 0 mm 6 mps 715 mmHg 53%
    13:00 +27°C° 0 mm 6 mps 715 mmHg 53%
    14:00 +28°C° 0 mm 6 mps 715 mmHg 52%
    15:00 +27°C° 0 mm 5 mps 715 mmHg 54%
    16:00 +26°C° 0 mm 5 mps 715 mmHg 56%
    17:00 +26°C° 0 mm 4 mps 716 mmHg 58%
    18:00 +23°C° 0 mm 4 mps 716 mmHg 65%
    19:00 +22°C° 0 mm 4 mps 716 mmHg 71%
    20:00 +21°C° 0 mm 3 mps 716 mmHg 77%
    21:00 +20°C° 0 mm 3 mps 716 mmHg 80%
    22:00 +20°C° 0 mm 3 mps 716 mmHg 83%
    23:00 +19°C° 0 mm 3 mps 717 mmHg 86%

    29 June, Friday

    Time Temperature Precipitation Wind Pressure Humidity
    00:00 +19°C° 0 mm 4 mps 717 mmHg 87%
    01:00 +19°C° 0 mm 4 mps 716 mmHg 88%
    02:00 +18°C° 0 mm 4 mps 716 mmHg 90%
    03:00 +18°C° 0 mm 3 mps 716 mmHg 90%
    04:00 +18°C° 0 mm 3 mps 716 mmHg 91%
    05:00 +18°C° 0 mm 3 mps 716 mmHg 91%
    06:00 +19°C° 0 mm 3 mps 716 mmHg 82%
    07:00 +21°C° 0 mm 3 mps 717 mmHg 73%
    08:00 +24°C° 0 mm 3 mps 717 mmHg 63%
    09:00 +25°C° 0 mm 3 mps 717 mmHg 57%
    10:00 +26°C° 0 mm 3 mps 717 mmHg 51%
    11:00 +28°C° 0 mm 3 mps 717 mmHg 45%
    12:00 +28°C° 0 mm 3 mps 717 mmHg 44%
    13:00 +29°C° 0 mm 3 mps 717 mmHg 43%
    14:00 +29°C° 0 mm 3 mps 717 mmHg 41%
    15:00 +28°C° 0 mm 3 mps 717 mmHg 43%
    16:00 +28°C° 0 mm 3 mps 717 mmHg 45%
    17:00 +27°C° 0 mm 3 mps 717 mmHg 47%
    18:00 +25°C° 0 mm 3 mps 717 mmHg 54%
    19:00 +24°C° 0 mm 2 mps 717 mmHg 60%
    20:00 +21°C° 0 mm 2 mps 717 mmHg 67%
    21:00 +20°C° 0 mm 2 mps 717 mmHg 70%
    22:00 +20°C° 0 mm 2 mps 717 mmHg 73%
    23:00 +20°C° 0 mm 1 mps 717 mmHg 76%

    30 June, Saturday

    Time Temperature Precipitation Wind Pressure Humidity
    00:00 +20°C° 0 mm 1 mps 717 mmHg 78%
    01:00 +19°C° 0 mm 1 mps 716 mmHg 79%
    02:00 +19°C° 0 mm 1 mps 716 mmHg 81%
    03:00 +19°C° 0 mm 1 mps 716 mmHg 82%
    04:00 +19°C° 0 mm 1 mps 716 mmHg 82%
    05:00 +18°C° 0 mm 1 mps 716 mmHg 83%
    06:00 +20°C° 0 mm 1 mps 716 mmHg 73%
    07:00 +23°C° 0 mm 1 mps 716 mmHg 64%
    08:00 +25°C° 0 mm 1 mps 716 mmHg 54%
    09:00 +26°C° 0 mm 1 mps 716 mmHg 48%
    10:00 +28°C° 0 mm 2 mps 716 mmHg 42%
    11:00 +30°C° 0 mm 2 mps 717 mmHg 36%
    12:00 +30°C° 0 mm 3 mps 716 mmHg 35%
    13:00 +32°C° 0 mm 4 mps 716 mmHg 35%
    14:00 +32°C° 0 mm 4 mps 716 mmHg 34%
    15:00 +30°C° 0 mm 5 mps 716 mmHg 37%
    16:00 +30°C° 0 mm 5 mps 716 mmHg 40%
    17:00 +29°C° 0 mm 5 mps 716 mmHg 43%
    18:00 +27°C° 0 mm 4 mps 716 mmHg 49%
    19:00 +26°C° 0 mm 4 mps 716 mmHg 56%
    20:00 +23°C° 0 mm 4 mps 716 mmHg 62%
    21:00 +22°C° 0 mm 4 mps 716 mmHg 64%
    22:00 +22°C° 0 mm 4 mps 716 mmHg 66%
    23:00 +21°C° 0 mm 4 mps 716 mmHg 68%
    Show more